Weather History for West Palm Beach, FL

Change the Weather History Date:

Saturday, March 22, 2014

  Actual Average Record
Temperature  
Mean Temperature 76 °F 71 °F  
Max Temperature 81 °F 79 °F 94 °F (1977)
Min Temperature 71 °F 63 °F 42 °F (1924)
Degree Days  
Heating Degree Days 0 1  
Month to date heating degree days 2 22  
Since 1 July heating degree days 117 227  
Cooling Degree Days 11 6  
Month to date cooling degree days 147 130  
Year to date cooling degree days 493 365  
Growing Degree Days 26 (Base 50)    
Moisture  
Dew Point 68 °F    
Average Humidity 79    
Maximum Humidity 90    
Minimum Humidity 67    
Precipitation  
Precipitation 0.04 in 0.16 in 1.64 in (1925)
Month to date precipitation 0.70 3.25  
Year to date precipitation 12.18 9.20  
Snow  
Snow 0.00 in - - ()
Month to date snowfall 0.0  
Since 1 July snowfall 0.0  
Snow Depth 0.00 in    
Sea Level Pressure  
Sea Level Pressure 30.03 in    
Wind  
Wind Speed 12 mph (SSE)    
Max Wind Speed 22 mph    
Max Gust Speed 28 mph    
Visibility 10 miles    
Events Rain    
T = Trace of Precipitation, MM = Missing Value Source: NWS Daily Summary

Daily Weather History Graph

Daily Weather History Graph

Search for Another Location

Airport:

Trip Planner

Search our weather history database for the weather conditions in past years. The results will help you decide how hot, cold, wet, or windy it might be!

Date:

Astronomy

Mar. 22, 2014 Rise Set
Actual Time 7:22 AM EDT 7:32 PM EDT
Civil Twilight 6:59 AM EDT 7:55 PM EDT
Nautical Twilight 6:32 AM EDT 8:22 PM EDT
Astronomical Twilight 6:04 AM EDT 8:50 PM EDT
Moon 12:24 AM EDT (3/22) 11:30 AM EDT (3/22)
Length of Visible Light 12h 56m
Length of Day
12h 10m
Waning Gibbous, 65% of the Moon is Illuminated
Mar 22
Waning Gibbous
Mar 23
Last Quarter
Mar 30
New
Apr 7
First Quarter
Apr 15
Full

Hourly Weather History & Observations

Time (EDT) Temp. Heat Index Dew Point Humidity Pressure Visibility Wind Dir Wind Speed Gust Speed Precip Events Conditions
12:53 AM 75.0 °F - 64.9 °F 71% 30.06 in 10.0 mi SE 13.8 mph - N/A   Mostly Cloudy
1:53 AM 75.0 °F - 64.9 °F 71% 30.05 in 10.0 mi SE 13.8 mph - N/A   Mostly Cloudy
2:53 AM 75.0 °F - 64.9 °F 71% 30.03 in 10.0 mi SE 13.8 mph - N/A   Mostly Cloudy
3:53 AM 75.0 °F - 64.0 °F 69% 30.01 in 10.0 mi SE 13.8 mph - N/A   Mostly Cloudy
4:53 AM 75.0 °F - 64.9 °F 71% 30.03 in 10.0 mi SSE 11.5 mph - N/A   Mostly Cloudy
5:53 AM 73.9 °F - 64.9 °F 73% 30.03 in 10.0 mi SSE 12.7 mph - 0.00 in   Scattered Clouds
6:53 AM 73.9 °F - 66.0 °F 76% 30.04 in 10.0 mi SSE 10.4 mph - N/A   Scattered Clouds
7:27 AM 75.0 °F - 66.0 °F 73% 30.05 in 10.0 mi South 6.9 mph - N/A   Mostly Cloudy
7:53 AM 75.0 °F - 66.0 °F 73% 30.05 in 10.0 mi SSE 9.2 mph - N/A   Mostly Cloudy
8:53 AM 75.9 °F - 68.0 °F 76% 30.07 in 7.0 mi South 8.1 mph - 0.00 in Rain Light Rain
9:39 AM 73.9 °F - 68.0 °F 82% 30.08 in 7.0 mi SSE 9.2 mph - 0.01 in   Mostly Cloudy
9:53 AM 75.9 °F - 69.1 °F 79% 30.08 in 10.0 mi SSE 9.2 mph - 0.01 in   Mostly Cloudy
10:16 AM 77.0 °F - 68.0 °F 74% 30.08 in 10.0 mi South 16.1 mph - N/A   Mostly Cloudy
10:53 AM 77.0 °F - 66.9 °F 71% 30.08 in 10.0 mi SSE 15.0 mph - N/A   Mostly Cloudy
11:53 AM 79.0 °F - 66.9 °F 66% 30.06 in 10.0 mi SSE 20.7 mph 27.6 mph N/A   Mostly Cloudy
12:53 PM 75.9 °F - 71.1 °F 85% 30.06 in 7.0 mi SSE 13.8 mph 20.7 mph 0.02 in   Mostly Cloudy
1:53 PM 77.0 °F - 69.1 °F 76% 30.03 in 7.0 mi SSE 18.4 mph 24.2 mph 0.00 in Rain Light Rain
2:53 PM 79.0 °F - 69.1 °F 72% 30.00 in 10.0 mi SSE 15.0 mph - 0.01 in   Mostly Cloudy
3:35 PM 81.0 °F 84.1 °F 69.1 °F 67% 29.99 in 10.0 mi South 17.3 mph - N/A   Mostly Cloudy
3:53 PM 80.1 °F 82.9 °F 69.1 °F 69% 29.98 in 10.0 mi SSE 16.1 mph - N/A   Scattered Clouds
4:53 PM 81.0 °F 84.1 °F 69.1 °F 67% 29.97 in 10.0 mi SSE 19.6 mph 25.3 mph N/A   Scattered Clouds
5:53 PM 79.0 °F - 69.1 °F 72% 29.97 in 10.0 mi SSE 16.1 mph - N/A   Scattered Clouds
6:53 PM 78.1 °F - 70.0 °F 76% 30.00 in 10.0 mi South 11.5 mph - N/A   Mostly Cloudy
7:53 PM 77.0 °F - 70.0 °F 79% 30.01 in 10.0 mi South 6.9 mph - N/A   Mostly Cloudy
8:53 PM 77.0 °F - 70.0 °F 79% 30.02 in 10.0 mi South 9.2 mph - N/A   Mostly Cloudy
9:53 PM 75.9 °F - 70.0 °F 82% 30.03 in 10.0 mi South 6.9 mph - N/A   Mostly Cloudy
10:53 PM 72.0 °F - 68.0 °F 87% 30.04 in 10.0 mi West 4.6 mph - N/A   Partly Cloudy
11:53 PM 71.1 °F - 64.9 °F 81% 30.04 in 10.0 mi WNW 6.9 mph - N/A   Partly Cloudy